| time (UTC) | temp F | wind direction | speed knots | gust knots | rain 1hr in | rain 24hr in | rain mn in | humidity % | barometer mb |
| 20260509134850 | 72 | 172 | 0.0 | 0.9 | 0.00 | 0.00 | 0.00 | 87 | 1012.7 |
| 20260509134420 | 72 | 174 | 0.0 | 1.7 | 0.00 | 0.00 | 0.00 | 87 | 1012.7 |
| 20260509133841 | 72 | 91 | 0.0 | 1.7 | 0.00 | 0.00 | 0.00 | 87 | 1012.6 |
| 20260509133414 | 72 | 79 | 0.0 | 0.9 | 0.00 | 0.00 | 0.00 | 87 | 1012.8 |
| 20260509132914 | 72 | 79 | 0.0 | 1.7 | 0.00 | 0.00 | 0.00 | 87 | 1012.8 |
| 20260509132344 | 71 | 79 | 0.9 | 1.7 | 0.00 | 0.00 | 0.00 | 87 | 1012.7 |
| 20260509131907 | 71 | 139 | 0.0 | 0.0 | 0.00 | 0.00 | 0.00 | 87 | 1013.0 |
| 20260509131437 | 71 | 139 | 0.0 | 0.0 | 0.00 | 0.00 | 0.00 | 87 | 1012.9 |
| 20260509130839 | 71 | 139 | 0.0 | 0.0 | 0.00 | 0.00 | 0.00 | 87 | 1013.0 |
| 20260509130414 | 71 | 139 | 0.0 | 0.0 | 0.00 | 0.00 | 0.00 | 87 | 1013.0 |
| 20260509125831 | 71 | 139 | 0.0 | 0.9 | 0.00 | 0.00 | 0.00 | 87 | 1013.0 |
| 20260509125404 | 71 | 139 | 0.0 | 0.9 | 0.00 | 0.00 | 0.00 | 87 | 1013.0 |
| 20260509124926 | 70 | 139 | 0.0 | 0.9 | 0.00 | 0.00 | 0.00 | 88 | 1013.0 |
| 20260509124415 | 70 | 139 | 0.0 | 0.9 | 0.00 | 0.00 | 0.00 | 88 | 1013.1 |
| 20260509123937 | 70 | 139 | 0.0 | 0.9 | 0.00 | 0.00 | 0.00 | 88 | 1013.2 |
| 20260509123336 | 70 | 139 | 0.0 | 1.7 | 0.00 | 0.00 | 0.00 | 88 | 1013.1 |
| 20260509122909 | 70 | 139 | 0.0 | 1.7 | 0.00 | 0.00 | 0.00 | 89 | 1013.1 |
| 20260509122332 | 70 | 130 | 0.9 | 1.7 | 0.00 | 0.00 | 0.00 | 89 | 1013.1 |
| 20260509121907 | 70 | 110 | 0.0 | 1.7 | 0.00 | 0.00 | 0.00 | 89 | 1013.1 |
| 20260509121325 | 69 | 108 | 0.9 | 1.7 | 0.00 | 0.00 | 0.00 | 90 | 1013.1 |
| 20260509120858 | 69 | 181 | 0.0 | 0.9 | 0.00 | 0.00 | 0.00 | 91 | 1013.2 |
| 20260509120423 | 69 | 138 | 0.0 | 1.7 | 0.00 | 0.00 | 0.00 | 91 | 1012.9 |
| 20260509115826 | 68 | 77 | 0.0 | 0.9 | 0.00 | 0.00 | 0.00 | 92 | 1012.8 |
| 20260509115349 | 67 | 329 | 0.0 | 0.9 | 0.00 | 0.00 | 0.00 | 93 | 1012.8 |
| 20260509114924 | 67 | 314 | 0.0 | 0.0 | 0.00 | 0.00 | 0.00 | 94 | 1012.9 |
| 20260509114324 | 66 | 314 | 0.0 | 0.0 | 0.00 | 0.00 | 0.00 | 94 | 1012.7 |
| 20260509113856 | 66 | 314 | 0.0 | 0.0 | 0.00 | 0.00 | 0.00 | 94 | 1012.7 |
| 20260509113419 | 65 | 314 | 0.0 | 0.0 | 0.00 | 0.00 | 0.00 | 94 | 1012.6 |
| 20260509112847 | 65 | 314 | 0.0 | 0.0 | 0.00 | 0.00 | 0.00 | 94 | 1012.7 |
| 20260509112407 | 65 | 314 | 0.0 | 0.0 | 0.00 | 0.00 | 0.00 | 94 | 1012.6 |
| 20260509111351 | 65 | 314 | 0.0 | 0.0 | 0.00 | 0.00 | 0.00 | 93 | 1012.5 |
| 20260509110915 | 64 | 314 | 0.0 | 0.0 | 0.00 | 0.00 | 0.00 | 93 | 1012.4 |
| 20260509110345 | 64 | 314 | 0.0 | 0.0 | 0.00 | 0.00 | 0.00 | 93 | 1012.5 |
| 20260509105907 | 64 | 314 | 0.0 | 0.0 | 0.00 | 0.00 | 0.00 | 93 | 1012.3 |
| 20260509105337 | 64 | 314 | 0.0 | 0.0 | 0.00 | 0.00 | 0.00 | 93 | 1012.3 |
| 20260509104859 | 64 | 91 | 0.0 | 0.0 | 0.00 | 0.00 | 0.00 | 92 | 1012.2 |
| 20260509104431 | 64 | 91 | 0.0 | 0.0 | 0.00 | 0.00 | 0.00 | 92 | 1012.0 |
| 20260509103829 | 64 | 91 | 0.0 | 0.0 | 0.00 | 0.00 | 0.00 | 92 | 1012.0 |
| 20260509103354 | 64 | 91 | 0.0 | 0.0 | 0.00 | 0.00 | 0.00 | 92 | 1012.0 |
| 20260509102925 | 64 | 91 | 0.0 | 0.0 | 0.00 | 0.00 | 0.00 | 91 | 1011.9 |
| 20260509102324 | 65 | 91 | 0.0 | 0.0 | 0.00 | 0.00 | 0.00 | 91 | 1011.8 |
| 20260509101855 | 65 | 91 | 0.0 | 0.0 | 0.00 | 0.00 | 0.00 | 92 | 1011.8 |
| 20260509101357 | 65 | 91 | 0.0 | 0.0 | 0.00 | 0.00 | 0.00 | 92 | 1011.9 |
| 20260509100907 | 65 | 91 | 0.0 | 0.0 | 0.00 | 0.00 | 0.00 | 92 | 1012.0 |
| 20260509100431 | 65 | 91 | 0.0 | 0.0 | 0.00 | 0.00 | 0.00 | 92 | 1011.8 |
| 20260509095837 | 65 | 91 | 0.0 | 0.0 | 0.00 | 0.00 | 0.00 | 92 | 1011.9 |
| 20260509095401 | 65 | 91 | 0.0 | 0.0 | 0.00 | 0.00 | 0.00 | 91 | 1012.0 |
| 20260509094934 | 65 | 91 | 0.0 | 0.0 | 0.00 | 0.00 | 0.00 | 91 | 1012.1 |
| 20260509094331 | 65 | 91 | 0.0 | 0.0 | 0.00 | 0.00 | 0.00 | 91 | 1012.0 |
| 20260509093905 | 65 | 91 | 0.0 | 0.0 | 0.00 | 0.00 | 0.00 | 91 | 1011.9 |
| 20260509093327 | 65 | 91 | 0.0 | 0.0 | 0.00 | 0.00 | 0.00 | 91 | 1011.9 |
| 20260509092858 | 65 | 91 | 0.0 | 0.0 | 0.00 | 0.00 | 0.00 | 91 | 1012.0 |
| 20260509092424 | 65 | 91 | 0.0 | 0.0 | 0.00 | 0.00 | 0.00 | 91 | 1012.0 |
| 20260509091823 | 65 | 91 | 0.0 | 0.0 | 0.00 | 0.00 | 0.00 | 91 | 1012.0 |
| 20260509091354 | 66 | 91 | 0.0 | 0.0 | 0.00 | 0.00 | 0.00 | 91 | 1012.2 |
| 20260509090928 | 66 | 91 | 0.0 | 0.0 | 0.00 | 0.00 | 0.00 | 91 | 1012.2 |
| 20260509090324 | 66 | 91 | 0.0 | 0.0 | 0.00 | 0.00 | 0.00 | 91 | 1012.3 |
| 20260509085847 | 66 | 91 | 0.0 | 0.0 | 0.00 | 0.00 | 0.00 | 91 | 1012.2 |
| 20260509085402 | 66 | 91 | 0.0 | 0.0 | 0.00 | 0.00 | 0.00 | 91 | 1012.2 |
| 20260509084904 | 66 | 91 | 0.0 | 0.0 | 0.00 | 0.00 | 0.00 | 91 | 1012.2 |
| 20260509084324 | 66 | 91 | 0.0 | 0.9 | 0.00 | 0.00 | 0.00 | 91 | 1012.3 |
| 20260509083856 | 66 | 91 | 0.0 | 0.9 | 0.00 | 0.00 | 0.00 | 91 | 1012.1 |
| 20260509083419 | 66 | 87 | 0.0 | 0.9 | 0.00 | 0.00 | 0.00 | 91 | 1012.2 |
| 20260509082847 | 66 | 87 | 0.0 | 0.0 | 0.00 | 0.00 | 0.00 | 91 | 1012.4 |
| 20260509082411 | 66 | 87 | 0.0 | 0.0 | 0.00 | 0.00 | 0.00 | 91 | 1012.4 |
| 20260509081841 | 66 | 87 | 0.0 | 0.0 | 0.00 | 0.00 | 0.00 | 91 | 1012.6 |
| 20260509081405 | 66 | 87 | 0.0 | 0.0 | 0.00 | 0.00 | 0.00 | 91 | 1012.5 |
| 20260509080838 | 66 | 87 | 0.0 | 0.0 | 0.00 | 0.00 | 0.00 | 90 | 1012.3 |
| 20260509080343 | 66 | 87 | 0.0 | 0.0 | 0.00 | 0.00 | 0.00 | 90 | 1012.2 |
| 20260509075845 | 66 | 87 | 0.0 | 0.0 | 0.00 | 0.00 | 0.00 | 90 | 1012.4 |
| 20260509075348 | 66 | 87 | 0.0 | 0.0 | 0.00 | 0.00 | 0.00 | 90 | 1012.4 |
| 20260509074854 | 66 | 87 | 0.0 | 0.0 | 0.00 | 0.00 | 0.00 | 90 | 1012.6 |
| 20260509074322 | 66 | 87 | 0.0 | 0.0 | 0.00 | 0.00 | 0.00 | 90 | 1012.7 |
| 20260509073843 | 66 | 87 | 0.0 | 0.0 | 0.00 | 0.00 | 0.00 | 89 | 1013.0 |
| 20260509073413 | 66 | 87 | 0.0 | 0.0 | 0.00 | 0.00 | 0.00 | 89 | 1012.8 |
| 20260509072857 | 67 | 87 | 0.0 | 0.0 | 0.00 | 0.00 | 0.00 | 89 | 1012.5 |
| 20260509072400 | 67 | 87 | 0.0 | 0.0 | 0.00 | 0.00 | 0.00 | 89 | 1012.5 |
| 20260509071902 | 67 | 87 | 0.0 | 0.0 | 0.00 | 0.00 | 0.00 | 89 | 1012.3 |
| 20260509070828 | 67 | 87 | 0.0 | 0.0 | 0.00 | 0.00 | 0.00 | 89 | 1012.1 |
| 20260509070351 | 67 | 87 | 0.0 | 0.0 | 0.00 | 0.00 | 0.00 | 89 | 1012.2 |
| 20260509065854 | 67 | 87 | 0.0 | 0.9 | 0.00 | 0.00 | 0.00 | 89 | 1012.3 |
| 20260509065359 | 67 | 87 | 0.0 | 0.9 | 0.00 | 0.00 | 0.00 | 88 | 1012.5 |
| 20260509064830 | 67 | 92 | 0.0 | 0.0 | 0.00 | 0.00 | 0.00 | 88 | 1012.5 |
| 20260509064353 | 67 | 92 | 0.0 | 0.9 | 0.00 | 0.00 | 0.00 | 88 | 1012.7 |
| 20260509063905 | 67 | 92 | 0.0 | 0.9 | 0.00 | 0.00 | 0.00 | 88 | 1012.7 |
| 20260509063409 | 67 | 92 | 0.0 | 0.9 | 0.00 | 0.00 | 0.00 | 87 | 1013.1 |
| 20260509062912 | 67 | 92 | 0.0 | 0.9 | 0.00 | 0.00 | 0.00 | 87 | 1013.0 |
| 20260509062354 | 67 | 92 | 0.0 | 0.9 | 0.00 | 0.00 | 0.00 | 86 | 1013.4 |
| 20260509061341 | 67 | 92 | 0.0 | 1.7 | 0.00 | 0.00 | 0.00 | 86 | 1013.0 |
| 20260509060843 | 67 | 102 | 0.0 | 1.7 | 0.00 | 0.00 | 0.00 | 86 | 1012.8 |
| 20260509060356 | 67 | 102 | 0.0 | 1.7 | 0.00 | 0.00 | 0.00 | 86 | 1013.0 |
| 20260509055902 | 67 | 90 | 0.0 | 1.7 | 0.00 | 0.00 | 0.00 | 86 | 1013.4 |
| 20260509055326 | 67 | 90 | 0.0 | 1.7 | 0.00 | 0.00 | 0.00 | 85 | 1013.7 |
| 20260509054849 | 67 | 127 | 0.0 | 1.7 | 0.00 | 0.00 | 0.00 | 85 | 1013.4 |
| 20260509054322 | 67 | 192 | 0.0 | 1.7 | 0.00 | 0.00 | 0.00 | 85 | 1013.4 |
| 20260509053828 | 67 | 95 | 0.0 | 1.7 | 0.00 | 0.00 | 0.00 | 85 | 1013.1 |
| 20260509053354 | 67 | 81 | 0.0 | 1.7 | 0.00 | 0.00 | 0.00 | 85 | 1013.4 |
| 20260509052838 | 66 | 156 | 0.0 | 0.9 | 0.00 | 0.00 | 0.00 | 85 | 1013.4 |
| 20260509052334 | 66 | 156 | 0.0 | 0.0 | 0.00 | 0.00 | 0.00 | 85 | 1013.8 |
| 20260509051840 | 66 | 156 | 0.0 | 0.0 | 0.00 | 0.00 | 0.00 | 84 | 1014.0 |
| 20260509051323 | 66 | 156 | 0.0 | 0.9 | 0.00 | 0.00 | 0.00 | 84 | 1014.3 |
| 20260509050849 | 67 | 156 | 0.0 | 0.9 | 0.00 | 0.00 | 0.00 | 84 | 1014.5 |
| 20260509050327 | 66 | 156 | 0.0 | 0.0 | 0.00 | 0.00 | 0.00 | 84 | 1014.8 |
| 20260509045831 | 66 | 156 | 0.0 | 0.0 | 0.00 | 0.00 | 0.00 | 84 | 1014.8 |
| 20260509045357 | 66 | 156 | 0.0 | 0.0 | 0.00 | 0.00 | 0.00 | 84 | 1014.9 |
| 20260509044841 | 66 | 156 | 0.0 | 0.0 | 0.00 | 0.00 | 0.00 | 84 | 1014.8 |
| 20260509044342 | 66 | 156 | 0.0 | 0.0 | 0.00 | 0.00 | 0.00 | 84 | 1014.8 |
| 20260509043846 | 66 | 156 | 0.0 | 0.9 | 0.00 | 0.00 | 0.00 | 84 | 1014.8 |
| 20260509043324 | 66 | 156 | 0.0 | 0.9 | 0.00 | 0.00 | 0.00 | 84 | 1014.6 |
| 20260509042828 | 66 | 156 | 0.0 | 1.7 | 0.00 | 0.00 | 0.00 | 84 | 1014.6 |
| 20260509042332 | 66 | 156 | 0.0 | 1.7 | 0.00 | 0.00 | 0.00 | 83 | 1014.1 |
| 20260509041859 | 66 | 34 | 0.0 | 0.0 | 0.00 | 0.00 | 0.00 | 83 | 1014.4 |
| 20260509041333 | 66 | 34 | 0.0 | 0.0 | 0.00 | 0.00 | 0.00 | 83 | 1014.6 |
| 20260509040836 | 66 | 34 | 0.0 | 0.0 | 0.00 | 0.00 | 0.00 | 83 | 1015.0 |
| 20260509040343 | 66 | 34 | 0.0 | 0.0 | 0.00 | 0.00 | 0.00 | 83 | 1015.2 |
| 20260509035916 | 66 | 34 | 0.0 | 0.0 | 0.00 | 0.00 | 0.00 | 83 | 1015.3 |
| 20260509035337 | 66 | 34 | 0.0 | 0.0 | 0.00 | 0.00 | 0.00 | 82 | 1015.2 |
| 20260509034406 | 66 | 34 | 0.0 | 0.0 | 0.00 | 0.00 | 0.00 | 82 | 1015.5 |
| 20260509033827 | 66 | 34 | 0.0 | 0.0 | 0.00 | 0.00 | 0.00 | 81 | 1015.4 |
| 20260509033401 | 66 | 34 | 0.0 | 0.0 | 0.00 | 0.00 | 0.00 | 81 | 1015.5 |
| 20260509032904 | 66 | 34 | 0.0 | 0.0 | 0.00 | 0.00 | 0.00 | 81 | 1015.3 |
| 20260509032324 | 66 | 34 | 0.0 | 0.0 | 0.00 | 0.00 | 0.00 | 81 | 1015.3 |
| 20260509031856 | 66 | 34 | 0.0 | 0.0 | 0.00 | 0.00 | 0.00 | 80 | 1015.4 |
| 20260509031355 | 66 | 34 | 0.0 | 0.0 | 0.00 | 0.00 | 0.00 | 80 | 1015.4 |
| 20260509030823 | 66 | 34 | 0.0 | 0.0 | 0.00 | 0.00 | 0.00 | 80 | 1015.4 |
| 20260509030347 | 67 | 34 | 0.0 | 0.0 | 0.00 | 0.00 | 0.00 | 80 | 1015.5 |
| 20260509025918 | 67 | 34 | 0.0 | 0.0 | 0.00 | 0.00 | 0.00 | 79 | 1015.5 |
| 20260509025336 | 67 | 34 | 0.0 | 0.0 | 0.00 | 0.00 | 0.00 | 79 | 1015.7 |
| 20260509024911 | 67 | 34 | 0.0 | 0.0 | 0.00 | 0.00 | 0.00 | 79 | 1015.8 |
| 20260509024414 | 67 | 34 | 0.0 | 0.0 | 0.00 | 0.00 | 0.00 | 79 | 1015.6 |
| 20260509023834 | 67 | 34 | 0.0 | 0.0 | 0.00 | 0.00 | 0.00 | 79 | 1015.4 |
| 20260509023405 | 67 | 34 | 0.0 | 0.9 | 0.00 | 0.00 | 0.00 | 79 | 1015.2 |
| 20260509022926 | 67 | 34 | 0.0 | 0.9 | 0.00 | 0.00 | 0.00 | 79 | 1015.2 |
| 20260509022333 | 67 | 34 | 0.0 | 0.9 | 0.00 | 0.00 | 0.00 | 79 | 1015.1 |
| 20260509021942 | 67 | 34 | 0.0 | 0.9 | 0.00 | 0.00 | 0.00 | 78 | 1015.1 |
| 20260509021348 | 67 | 34 | 0.0 | 0.0 | 0.00 | 0.00 | 0.00 | 78 | 1015.1 |
| 20260509020345 | 67 | 34 | 0.0 | 0.0 | 0.00 | 0.00 | 0.00 | 77 | 1015.0 |
| 20260509015916 | 67 | 34 | 0.0 | 0.0 | 0.00 | 0.00 | 0.00 | 78 | 1015.2 |
| 20260509015438 | 67 | 34 | 0.0 | 0.0 | 0.00 | 0.00 | 0.00 | 78 | 1015.2 |
| 20260509014847 | 67 | 34 | 0.0 | 0.0 | 0.00 | 0.00 | 0.00 | 78 | 1015.3 |
| 20260509013936 | 67 | 34 | 0.0 | 0.9 | 0.00 | 0.00 | 0.00 | 77 | 1015.1 |
| 20260509013342 | 67 | 337 | 0.0 | 0.9 | 0.00 | 0.00 | 0.00 | 77 | 1015.0 |
| 20260509012914 | 67 | 337 | 0.0 | 1.7 | 0.00 | 0.00 | 0.00 | 77 | 1014.9 |
| 20260509012333 | 67 | 262 | 0.0 | 1.7 | 0.00 | 0.00 | 0.00 | 76 | 1014.9 |
| 20260509011858 | 67 | 31 | 0.0 | 2.6 | 0.00 | 0.00 | 0.00 | 76 | 1014.9 |
| 20260509011327 | 67 | 83 | 0.9 | 2.6 | 0.00 | 0.00 | 0.00 | 76 | 1015.0 |
| 20260509010847 | 67 | 120 | 0.0 | 3.5 | 0.00 | 0.00 | 0.00 | 76 | 1015.1 |
| 20260509010420 | 67 | 64 | 0.0 | 3.5 | 0.00 | 0.00 | 0.00 | 76 | 1015.0 |
| 20260509005840 | 67 | 64 | 0.0 | 1.7 | 0.00 | 0.00 | 0.00 | 76 | 1014.9 |
| 20260509004848 | 67 | 104 | 0.0 | 1.7 | 0.00 | 0.00 | 0.00 | 76 | 1014.8 |
| 20260509003854 | 67 | 241 | 0.9 | 2.6 | 0.00 | 0.00 | 0.00 | 75 | 1014.8 |
| 20260509003419 | 67 | 149 | 0.9 | 2.6 | 0.00 | 0.00 | 0.00 | 75 | 1014.8 |
| 20260509002846 | 67 | 109 | 0.9 | 3.5 | 0.00 | 0.00 | 0.00 | 75 | 1014.5 |
| 20260509002349 | 67 | 102 | 0.0 | 3.5 | 0.00 | 0.00 | 0.00 | 75 | 1014.5 |
| 20260509001921 | 67 | 103 | 0.0 | 3.5 | 0.00 | 0.00 | 0.00 | 75 | 1014.5 |
| 20260509001339 | 67 | 168 | 0.0 | 3.5 | 0.00 | 0.00 | 0.00 | 74 | 1014.4 |
| 20260509000902 | 67 | 48 | 0.9 | 3.5 | 0.00 | 0.00 | 0.00 | 75 | 1014.3 |
| 20260509000415 | 67 | 42 | 0.0 | 3.5 | 0.00 | 0.00 | 0.00 | 75 | 1014.5 |
| 20260508235832 | 67 | 101 | 0.9 | 2.6 | 0.00 | 0.00 | 0.00 | 75 | 1014.5 |
| 20260508235344 | 67 | 191 | 0.9 | 6.1 | 0.00 | 0.00 | 0.00 | 74 | 1014.4 |
| 20260508234907 | 67 | 271 | 1.7 | 6.1 | 0.00 | 0.00 | 0.00 | 73 | 1014.3 |
| 20260508234416 | 67 | 81 | 0.9 | 5.2 | 0.00 | 0.00 | 0.00 | 74 | 1014.2 |
| 20260508233835 | 67 | 114 | 1.7 | 5.2 | 0.00 | 0.00 | 0.00 | 74 | 1014.3 |
| 20260508232841 | 67 | 239 | 0.9 | 3.5 | 0.00 | 0.00 | 0.00 | 72 | 1014.2 |
| 20260508232405 | 67 | 72 | 0.9 | 5.2 | 0.00 | 0.00 | 0.00 | 71 | 1014.3 |
| 20260508231835 | 67 | 95 | 1.7 | 5.2 | 0.00 | 0.00 | 0.00 | 71 | 1014.4 |
| 20260508231357 | 67 | 174 | 0.9 | 4.3 | 0.00 | 0.00 | 0.00 | 72 | 1014.5 |
| 20260508230927 | 67 | 314 | 0.9 | 4.3 | 0.00 | 0.00 | 0.00 | 72 | 1014.5 |
| 20260508230327 | 67 | 89 | 0.9 | 4.3 | 0.00 | 0.00 | 0.00 | 73 | 1014.3 |
| 20260508225858 | 67 | 93 | 0.9 | 4.3 | 0.00 | 0.00 | 0.00 | 73 | 1014.5 |
| 20260508225419 | 67 | 114 | 1.7 | 6.1 | 0.00 | 0.00 | 0.00 | 74 | 1014.4 |
| 20260508224847 | 67 | 66 | 2.6 | 7.8 | 0.00 | 0.00 | 0.00 | 73 | 1014.2 |
| 20260508224409 | 68 | 141 | 1.7 | 7.8 | 0.00 | 0.00 | 0.00 | 73 | 1014.1 |
| 20260508223828 | 68 | 78 | 0.9 | 6.1 | 0.00 | 0.00 | 0.00 | 74 | 1014.1 |
| 20260508223400 | 68 | 152 | 1.7 | 6.1 | 0.00 | 0.00 | 0.00 | 73 | 1014.3 |
| 20260508222912 | 68 | 194 | 0.9 | 7.0 | 0.00 | 0.00 | 0.00 | 74 | 1014.2 |
| 20260508222331 | 68 | 123 | 2.6 | 7.0 | 0.00 | 0.00 | 0.00 | 74 | 1014.1 |
| 20260508221855 | 68 | 124 | 0.9 | 4.3 | 0.00 | 0.00 | 0.00 | 73 | 1014.1 |
| 20260508221405 | 68 | 245 | 1.7 | 5.2 | 0.00 | 0.00 | 0.00 | 73 | 1014.3 |
| 20260508220826 | 68 | 141 | 0.9 | 3.5 | 0.00 | 0.00 | 0.00 | 74 | 1014.4 |
| 20260508220356 | 68 | 108 | 0.9 | 3.5 | 0.00 | 0.00 | 0.00 | 74 | 1014.3 |
| 20260508215919 | 68 | 60 | 0.9 | 4.3 | 0.00 | 0.00 | 0.00 | 73 | 1014.4 |
| 20260508215346 | 68 | 114 | 1.7 | 4.3 | 0.00 | 0.00 | 0.00 | 73 | 1014.1 |
| 20260508214909 | 68 | 38 | 1.7 | 6.1 | 0.00 | 0.00 | 0.00 | 72 | 1014.2 |
| 20260508214341 | 68 | 239 | 0.9 | 4.3 | 0.00 | 0.00 | 0.00 | 72 | 1014.2 |
| 20260508213859 | 68 | 159 | 0.9 | 7.0 | 0.00 | 0.00 | 0.00 | 71 | 1014.2 |
| 20260508213434 | 68 | 85 | 2.6 | 7.0 | 0.00 | 0.00 | 0.00 | 70 | 1014.3 |
| 20260508212834 | 68 | 83 | 2.6 | 8.7 | 0.00 | 0.00 | 0.00 | 72 | 1014.4 |
| 20260508212356 | 68 | 127 | 1.7 | 7.0 | 0.00 | 0.00 | 0.00 | 72 | 1014.6 |
| 20260508211925 | 68 | 177 | 0.9 | 8.7 | 0.00 | 0.00 | 0.00 | 72 | 1014.6 |
| 20260508211423 | 68 | 141 | 1.7 | 6.1 | 0.00 | 0.00 | 0.00 | 71 | 1014.5 |
| 20260508210934 | 68 | 19 | 1.7 | 7.8 | 0.00 | 0.00 | 0.00 | 70 | 1014.5 |
| 20260508210438 | 68 | 137 | 1.7 | 7.8 | 0.00 | 0.00 | 0.00 | 71 | 1014.5 |
| 20260508205842 | 68 | 222 | 2.6 | 6.1 | 0.00 | 0.00 | 0.00 | 70 | 1014.4 |
| 20260508204853 | 68 | 76 | 2.6 | 7.8 | 0.00 | 0.00 | 0.00 | 71 | 1014.4 |
| 20260508204413 | 68 | 225 | 2.6 | 7.0 | 0.00 | 0.00 | 0.00 | 70 | 1014.3 |
| 20260508203831 | 69 | 248 | 2.6 | 7.0 | 0.00 | 0.00 | 0.00 | 69 | 1014.4 |
| 20260508203406 | 69 | 62 | 2.6 | 7.8 | 0.00 | 0.00 | 0.00 | 68 | 1014.4 |
| 20260508202927 | 69 | 49 | 2.6 | 7.8 | 0.00 | 0.00 | 0.00 | 66 | 1014.4 |
| 20260508202335 | 69 | 216 | 2.6 | 5.2 | 0.00 | 0.00 | 0.00 | 67 | 1014.3 |
| 20260508201859 | 70 | 214 | 1.7 | 10.4 | 0.00 | 0.00 | 0.00 | 66 | 1014.4 |
| 20260508201406 | 70 | 82 | 0.9 | 10.4 | 0.00 | 0.00 | 0.00 | 65 | 1014.4 |
| 20260508200907 | 70 | 114 | 2.6 | 8.7 | 0.00 | 0.00 | 0.00 | 65 | 1014.8 |
| 20260508200418 | 70 | 73 | 2.6 | 8.7 | 0.00 | 0.00 | 0.00 | 65 | 1014.8 |
| 20260508195836 | 70 | 104 | 1.7 | 7.8 | 0.00 | 0.05 | 0.00 | 64 | 1014.9 |
| 20260508195406 | 70 | 75 | 1.7 | 7.8 | 0.00 | 0.05 | 0.00 | 62 | 1014.9 |
| 20260508194828 | 70 | 237 | 2.6 | 7.8 | 0.00 | 0.05 | 0.00 | 63 | 1014.9 |
| 20260508194348 | 71 | 87 | 2.6 | 9.6 | 0.00 | 0.05 | 0.00 | 65 | 1015.1 |
| 20260508193902 | 71 | 68 | 2.6 | 9.6 | 0.00 | 0.05 | 0.00 | 64 | 1015.1 |
| 20260508193424 | 71 | 134 | 1.7 | 7.0 | 0.00 | 0.05 | 0.00 | 67 | 1015.1 |
| 20260508192855 | 70 | 111 | 2.6 | 8.7 | 0.00 | 0.05 | 0.00 | 66 | 1014.9 |
| 20260508192357 | 70 | 108 | 4.3 | 8.7 | 0.00 | 0.05 | 0.00 | 66 | 1014.9 |
| 20260508191911 | 70 | 125 | 1.7 | 7.8 | 0.00 | 0.05 | 0.00 | 65 | 1015.0 |
| 20260508191327 | 70 | 103 | 2.6 | 8.7 | 0.00 | 0.05 | 0.00 | 63 | 1015.0 |
| 20260508190851 | 71 | 285 | 2.6 | 7.8 | 0.00 | 0.05 | 0.00 | 64 | 1015.0 |
| 20260508190423 | 71 | 125 | 2.6 | 7.8 | 0.00 | 0.05 | 0.00 | 65 | 1015.1 |
| 20260508185922 | 71 | 89 | 1.7 | 9.6 | 0.00 | 0.05 | 0.00 | 64 | 1015.1 |
| 20260508185351 | 72 | 174 | 3.5 | 9.6 | 0.00 | 0.05 | 0.00 | 63 | 1015.1 |
| 20260508184915 | 72 | 106 | 2.6 | 11.3 | 0.00 | 0.05 | 0.00 | 64 | 1015.2 |
| 20260508184341 | 72 | 81 | 2.6 | 11.3 | 0.00 | 0.05 | 0.00 | 63 | 1015.2 |
| 20260508183904 | 71 | 122 | 4.3 | 11.3 | 0.00 | 0.05 | 0.00 | 63 | 1015.4 |
| 20260508183334 | 72 | 210 | 3.5 | 8.7 | 0.00 | 0.05 | 0.00 | 63 | 1015.4 |
| 20260508182854 | 72 | 208 | 2.6 | 8.7 | 0.00 | 0.05 | 0.00 | 63 | 1015.3 |
| 20260508182415 | 72 | 156 | 2.6 | 8.7 | 0.00 | 0.05 | 0.00 | 61 | 1015.2 |
| 20260508181829 | 72 | 82 | 2.6 | 8.7 | 0.00 | 0.05 | 0.00 | 60 | 1015.4 |
| 20260508181331 | 72 | 131 | 4.3 | 9.6 | 0.00 | 0.05 | 0.00 | 61 | 1015.5 |
| 20260508180850 | 73 | 23 | 2.6 | 8.7 | 0.00 | 0.05 | 0.00 | 60 | 1015.5 |
| 20260508180420 | 73 | 174 | 2.6 | 10.4 | 0.00 | 0.05 | 0.00 | 59 | 1015.5 |
| 20260508175920 | 73 | 145 | 3.5 | 10.4 | 0.00 | 0.05 | 0.00 | 59 | 1015.7 |
| 20260508175327 | 73 | 206 | 2.6 | 7.8 | 0.00 | 0.05 | 0.00 | 59 | 1015.7 |
| 20260508174855 | 73 | 134 | 2.6 | 7.8 | 0.00 | 0.05 | 0.00 | 58 | 1015.8 |
| 20260508174355 | 73 | 29 | 2.6 | 7.8 | 0.00 | 0.05 | 0.00 | 59 | 1015.7 |
| 20260508173927 | 74 | 74 | 2.6 | 7.8 | 0.00 | 0.05 | 0.00 | 55 | 1015.7 |
| 20260508173326 | 74 | 171 | 1.7 | 7.0 | 0.00 | 0.05 | 0.00 | 57 | 1015.8 |
| 20260508172856 | 74 | 193 | 0.9 | 7.8 | 0.00 | 0.05 | 0.00 | 59 | 1015.8 |
| 20260508172417 | 74 | 343 | 2.6 | 7.8 | 0.00 | 0.05 | 0.00 | 57 | 1015.9 |
| 20260508171835 | 74 | 188 | 2.6 | 9.6 | 0.00 | 0.05 | 0.00 | 54 | 1015.8 |
| 20260508171405 | 74 | 99 | 2.6 | 9.6 | 0.00 | 0.05 | 0.00 | 56 | 1015.9 |
| 20260508170828 | 74 | 93 | 3.5 | 7.0 | 0.00 | 0.05 | 0.00 | 53 | 1016.1 |
| 20260508170357 | 74 | 295 | 1.7 | 6.1 | 0.00 | 0.05 | 0.00 | 53 | 1016.2 |
| 20260508165918 | 74 | 287 | 0.9 | 7.0 | 0.00 | 0.05 | 0.00 | 54 | 1015.9 |
| 20260508165323 | 74 | 115 | 2.6 | 7.8 | 0.00 | 0.05 | 0.00 | 52 | 1015.9 |
| 20260508164856 | 75 | 189 | 2.6 | 7.0 | 0.00 | 0.05 | 0.00 | 50 | 1016.0 |
| 20260508164400 | 75 | 100 | 1.7 | 3.5 | 0.00 | 0.05 | 0.00 | 52 | 1016.1 |
| 20260508163902 | 75 | 118 | 0.9 | 4.3 | 0.00 | 0.05 | 0.00 | 50 | 1016.3 |
| 20260508163408 | 74 | 111 | 1.7 | 4.3 | 0.00 | 0.05 | 0.00 | 49 | 1016.2 |
| 20260508162834 | 74 | 245 | 0.9 | 3.5 | 0.00 | 0.05 | 0.00 | 50 | 1016.4 |
| 20260508162358 | 74 | 168 | 0.9 | 3.5 | 0.00 | 0.05 | 0.00 | 50 | 1016.4 |
| 20260508161826 | 74 | 84 | 0.9 | 5.2 | 0.00 | 0.05 | 0.00 | 50 | 1016.5 |
| 20260508161347 | 73 | 172 | 1.7 | 5.2 | 0.00 | 0.05 | 0.00 | 50 | 1016.7 |
| 20260508160852 | 73 | 228 | 0.9 | 3.5 | 0.00 | 0.05 | 0.00 | 53 | 1016.8 |
| 20260508160334 | 72 | 204 | 1.7 | 6.1 | 0.00 | 0.05 | 0.00 | 51 | 1016.8 |
| 20260508155906 | 72 | 60 | 1.7 | 6.1 | 0.00 | 0.05 | 0.00 | 51 | 1016.9 |
| 20260508155327 | 71 | 276 | 1.7 | 5.2 | 0.00 | 0.05 | 0.00 | 51 | 1017.1 |
| 20260508154900 | 71 | 112 | 0.9 | 7.0 | 0.00 | 0.05 | 0.00 | 53 | 1017.3 |
| 20260508154420 | 71 | 271 | 1.7 | 7.0 | 0.00 | 0.05 | 0.00 | 53 | 1017.2 |
| 20260508153934 | 72 | 244 | 1.7 | 6.1 | 0.00 | 0.05 | 0.00 | 53 | 1017.3 |
| 20260508153332 | 72 | 97 | 1.7 | 5.2 | 0.00 | 0.05 | 0.00 | 52 | 1017.3 |
| 20260508152854 | 72 | 268 | 1.7 | 5.2 | 0.00 | 0.05 | 0.00 | 53 | 1017.2 |
| 20260508151925 | 71 | 138 | 1.7 | 6.1 | 0.00 | 0.05 | 0.00 | 56 | 1017.2 |
| 20260508151404 | 71 | 104 | 2.6 | 6.1 | 0.00 | 0.05 | 0.00 | 55 | 1017.2 |
| 20260508150908 | 71 | 97 | 0.9 | 4.3 | 0.00 | 0.05 | 0.00 | 59 | 1017.2 |
| 20260508150413 | 70 | 104 | 1.7 | 4.3 | 0.00 | 0.05 | 0.00 | 57 | 1017.3 |
| 20260508145914 | 70 | 152 | 1.7 | 5.2 | 0.00 | 0.05 | 0.00 | 57 | 1017.3 |
| 20260508145408 | 69 | 95 | 0.9 | 5.2 | 0.00 | 0.05 | 0.00 | 60 | 1017.2 |
| 20260508144910 | 69 | 18 | 1.7 | 7.0 | 0.00 | 0.05 | 0.00 | 58 | 1017.2 |
| 20260508144325 | 69 | 246 | 2.6 | 7.0 | 0.00 | 0.05 | 0.00 | 57 | 1017.0 |
| 20260508143932 | 69 | 76 | 1.7 | 6.1 | 0.00 | 0.05 | 0.00 | 59 | 1017.0 |
| 20260508143414 | 68 | 95 | 0.9 | 11.3 | 0.00 | 0.05 | 0.00 | 59 | 1017.1 |
| 20260508142904 | 68 | 224 | 1.7 | 5.2 | 0.00 | 0.05 | 0.00 | 59 | 1017.1 |
| 20260508142323 | 68 | 319 | 1.7 | 5.2 | 0.00 | 0.05 | 0.00 | 60 | 1017.0 |
| 20260508141845 | 67 | 120 | 1.7 | 5.2 | 0.00 | 0.05 | 0.00 | 62 | 1016.8 |
| 20260508141355 | 66 | 66 | 1.7 | 4.3 | 0.00 | 0.05 | 0.00 | 64 | 1016.8 |
| 20260508140900 | 66 | 277 | 1.7 | 4.3 | 0.00 | 0.05 | 0.00 | 66 | 1016.8 |
| 20260508140401 | 65 | 116 | 0.9 | 4.3 | 0.00 | 0.05 | 0.00 | 68 | 1016.8 |
| 20260508135902 | 65 | 70 | 1.7 | 4.3 | 0.00 | 0.05 | 0.00 | 68 | 1016.9 |
| 20260508135408 | 64 | 188 | 0.0 | 4.3 | 0.00 | 0.05 | 0.00 | 70 | 1016.8 |